| time (UTC) | temp F | wind direction | speed MPH | gust MPH | rain 1hr in | rain 24hr in | rain mn in | humidity % | barometer mb |
| 20260509215029 | 71 | 316 | 9.0 | 20.0 | 0.00 | 0.00 | 0.00 | 17 | 1017.0 |
| 20260509214530 | 71 | 296 | 13.0 | 20.0 | 0.00 | 0.00 | 0.00 | 18 | 1017.0 |
| 20260509214029 | 71 | 335 | 13.0 | 22.0 | 0.00 | 0.00 | 0.00 | 18 | 1017.0 |
| 20260509213530 | 71 | 301 | 7.0 | 17.0 | 0.00 | 0.00 | 0.00 | 17 | 1017.0 |
| 20260509213031 | 71 | 325 | 9.0 | 19.0 | 0.00 | 0.00 | 0.00 | 17 | 1017.0 |
| 20260509212529 | 71 | 297 | 9.0 | 16.0 | 0.00 | 0.00 | 0.00 | 17 | 1017.0 |
| 20260509212029 | 70 | 320 | 8.0 | 16.0 | 0.00 | 0.00 | 0.00 | 17 | 1017.0 |
| 20260509211529 | 70 | 327 | 13.0 | 23.0 | 0.00 | 0.00 | 0.00 | 17 | 1017.0 |
| 20260509211029 | 71 | 313 | 7.0 | 14.0 | 0.00 | 0.00 | 0.00 | 17 | 1017.0 |
| 20260509210529 | 71 | 318 | 10.0 | 18.0 | 0.00 | 0.00 | 0.00 | 17 | 1017.0 |
| 20260509205531 | 71 | 34 | 12.0 | 17.0 | 0.00 | 0.00 | 0.00 | 17 | 1017.0 |
| 20260509205031 | 71 | 324 | 9.0 | 17.0 | 0.00 | 0.00 | 0.00 | 19 | 1018.0 |
| 20260509204530 | 71 | 313 | 7.0 | 12.0 | 0.00 | 0.00 | 0.00 | 17 | 1018.0 |
| 20260509204031 | 70 | 294 | 11.0 | 17.0 | 0.00 | 0.00 | 0.00 | 18 | 1018.0 |
| 20260509203529 | 70 | 291 | 9.0 | 17.0 | 0.00 | 0.00 | 0.00 | 18 | 1018.0 |
| 20260509203029 | 70 | 314 | 13.0 | 20.0 | 0.00 | 0.00 | 0.00 | 17 | 1018.0 |
| 20260509202529 | 70 | 340 | 7.0 | 13.0 | 0.00 | 0.00 | 0.00 | 16 | 1018.0 |
| 20260509202029 | 70 | 328 | 9.0 | 17.0 | 0.00 | 0.00 | 0.00 | 17 | 1018.0 |
| 20260509201529 | 70 | 326 | 13.0 | 22.0 | 0.00 | 0.00 | 0.00 | 18 | 1018.0 |
| 20260509201031 | 70 | 307 | 13.0 | 25.0 | 0.00 | 0.00 | 0.00 | 17 | 1018.0 |
| 20260509200530 | 70 | 339 | 9.0 | 14.0 | 0.00 | 0.00 | 0.00 | 17 | 1018.0 |
| 20260509200031 | 70 | 308 | 9.0 | 17.0 | 0.00 | 0.00 | 0.00 | 17 | 1018.0 |
| 20260509195529 | 69 | 318 | 9.0 | 15.0 | 0.00 | 0.00 | 0.00 | 17 | 1018.0 |
| 20260509195029 | 69 | 319 | 13.0 | 23.0 | 0.00 | 0.00 | 0.00 | 17 | 1018.0 |
| 20260509194532 | 69 | 295 | 11.0 | 17.0 | 0.00 | 0.00 | 0.00 | 17 | 1018.0 |
| 20260509194030 | 69 | 326 | 12.0 | 25.0 | 0.00 | 0.00 | 0.00 | 17 | 1018.0 |
| 20260509193530 | 69 | 12 | 9.0 | 21.0 | 0.00 | 0.00 | 0.00 | 18 | 1018.0 |
| 20260509193030 | 69 | 307 | 8.0 | 19.0 | 0.00 | 0.00 | 0.00 | 18 | 1018.0 |
| 20260509192529 | 69 | 287 | 11.0 | 22.0 | 0.00 | 0.00 | 0.00 | 19 | 1018.0 |
| 20260509192029 | 68 | 324 | 9.0 | 14.0 | 0.00 | 0.00 | 0.00 | 19 | 1018.0 |
| 20260509191530 | 68 | 1 | 9.0 | 23.0 | 0.00 | 0.00 | 0.00 | 18 | 1018.0 |
| 20260509191029 | 69 | 325 | 8.0 | 14.0 | 0.00 | 0.00 | 0.00 | 15 | 1018.0 |
| 20260509190529 | 68 | 330 | 13.0 | 19.0 | 0.00 | 0.00 | 0.00 | 16 | 1018.0 |
| 20260509190029 | 68 | 323 | 10.0 | 15.0 | 0.00 | 0.00 | 0.00 | 16 | 1018.0 |
| 20260509185529 | 68 | 300 | 6.0 | 16.0 | 0.00 | 0.00 | 0.00 | 18 | 1018.0 |
| 20260509185029 | 68 | 302 | 13.0 | 19.0 | 0.00 | 0.00 | 0.00 | 18 | 1018.0 |
| 20260509184529 | 69 | 325 | 8.0 | 17.0 | 0.00 | 0.00 | 0.00 | 18 | 1018.0 |
| 20260509184029 | 69 | 345 | 9.0 | 20.0 | 0.00 | 0.00 | 0.00 | 19 | 1018.0 |
| 20260509183529 | 68 | 18 | 6.0 | 13.0 | 0.00 | 0.00 | 0.00 | 19 | 1018.0 |
| 20260509183029 | 67 | 310 | 11.0 | 20.0 | 0.00 | 0.00 | 0.00 | 19 | 1019.0 |
| 20260509182530 | 68 | 310 | 13.0 | 23.0 | 0.00 | 0.00 | 0.00 | 17 | 1019.0 |
| 20260509182030 | 67 | 318 | 12.0 | 17.0 | 0.00 | 0.00 | 0.00 | 18 | 1019.0 |
| 20260509181529 | 67 | 301 | 17.0 | 25.0 | 0.00 | 0.00 | 0.00 | 17 | 1019.0 |
| 20260509181031 | 66 | 304 | 8.0 | 15.0 | 0.00 | 0.00 | 0.00 | 16 | 1019.0 |
| 20260509180530 | 66 | 308 | 11.0 | 15.0 | 0.00 | 0.00 | 0.00 | 18 | 1019.0 |
| 20260509180032 | 67 | 315 | 12.0 | 17.0 | 0.00 | 0.00 | 0.00 | 17 | 1019.0 |
| 20260509175529 | 67 | 326 | 10.0 | 18.0 | 0.00 | 0.00 | 0.00 | 17 | 1019.0 |
| 20260509175030 | 67 | 15 | 4.0 | 9.0 | 0.00 | 0.00 | 0.00 | 18 | 1019.0 |
| 20260509174530 | 67 | 315 | 11.0 | 21.0 | 0.00 | 0.00 | 0.00 | 17 | 1019.0 |
| 20260509174029 | 67 | 34 | 11.0 | 16.0 | 0.00 | 0.00 | 0.00 | 15 | 1019.0 |
| 20260509173530 | 67 | 331 | 7.0 | 13.0 | 0.00 | 0.00 | 0.00 | 18 | 1019.0 |
| 20260509173030 | 66 | 316 | 9.0 | 17.0 | 0.00 | 0.00 | 0.00 | 16 | 1019.0 |
| 20260509172532 | 66 | 299 | 11.0 | 28.0 | 0.00 | 0.00 | 0.00 | 16 | 1018.0 |
| 20260509172031 | 66 | 310 | 13.0 | 20.0 | 0.00 | 0.00 | 0.00 | 16 | 1019.0 |
| 20260509171530 | 66 | 339 | 8.0 | 13.0 | 0.00 | 0.00 | 0.00 | 16 | 1019.0 |
| 20260509171031 | 66 | 320 | 9.0 | 13.0 | 0.00 | 0.00 | 0.00 | 17 | 1019.0 |
| 20260509170529 | 65 | 323 | 14.0 | 18.0 | 0.00 | 0.00 | 0.00 | 18 | 1019.0 |
| 20260509170029 | 66 | 309 | 9.0 | 17.0 | 0.00 | 0.00 | 0.00 | 17 | 1018.0 |
| 20260509165530 | 66 | 299 | 15.0 | 29.0 | 0.00 | 0.00 | 0.00 | 16 | 1018.0 |
| 20260509165032 | 66 | 318 | 7.0 | 12.0 | 0.00 | 0.00 | 0.00 | 19 | 1019.0 |
| 20260509164529 | 66 | 326 | 12.0 | 17.0 | 0.00 | 0.00 | 0.00 | 18 | 1019.0 |
| 20260509164029 | 66 | 304 | 12.0 | 25.0 | 0.00 | 0.00 | 0.00 | 19 | 1019.0 |
| 20260509163529 | 66 | 300 | 14.0 | 25.0 | 0.00 | 0.00 | 0.00 | 19 | 1019.0 |
| 20260509163031 | 66 | 308 | 13.0 | 30.0 | 0.00 | 0.00 | 0.00 | 19 | 1018.0 |
| 20260509162530 | 66 | 7 | 10.0 | 17.0 | 0.00 | 0.00 | 0.00 | 19 | 1019.0 |
| 20260509162030 | 65 | 338 | 8.0 | 17.0 | 0.00 | 0.00 | 0.00 | 21 | 1019.0 |
| 20260509161531 | 65 | 15 | 13.0 | 20.0 | 0.00 | 0.00 | 0.00 | 19 | 1019.0 |
| 20260509161032 | 65 | 301 | 13.0 | 19.0 | 0.00 | 0.00 | 0.00 | 20 | 1018.0 |
| 20260509160530 | 64 | 325 | 9.0 | 15.0 | 0.00 | 0.00 | 0.00 | 20 | 1018.0 |
| 20260509160031 | 65 | 305 | 13.0 | 28.0 | 0.00 | 0.00 | 0.00 | 21 | 1018.0 |
| 20260509155531 | 65 | 316 | 13.0 | 19.0 | 0.00 | 0.00 | 0.00 | 22 | 1018.0 |
| 20260509154624 | 64 | 302 | 9.0 | 15.0 | 0.00 | 0.00 | 0.00 | 24 | 1018.0 |
| 20260509154029 | 64 | 305 | 12.0 | 19.0 | 0.00 | 0.00 | 0.00 | 23 | 1018.0 |
| 20260509153530 | 64 | 328 | 11.0 | 18.0 | 0.00 | 0.00 | 0.00 | 23 | 1018.0 |
| 20260509153031 | 64 | 333 | 7.0 | 10.0 | 0.00 | 0.00 | 0.00 | 25 | 1018.0 |
| 20260509152531 | 63 | 296 | 11.0 | 17.0 | 0.00 | 0.00 | 0.00 | 25 | 1018.0 |
| 20260509152031 | 63 | 300 | 9.0 | 13.0 | 0.00 | 0.00 | 0.00 | 26 | 1018.0 |
| 20260509151530 | 63 | 309 | 9.0 | 12.0 | 0.00 | 0.00 | 0.00 | 27 | 1018.0 |
| 20260509151031 | 63 | 320 | 9.0 | 12.0 | 0.00 | 0.00 | 0.00 | 27 | 1018.0 |
| 20260509150531 | 62 | 274 | 8.0 | 12.0 | 0.00 | 0.00 | 0.00 | 27 | 1018.0 |
| 20260509150033 | 62 | 294 | 10.0 | 16.0 | 0.00 | 0.00 | 0.00 | 28 | 1018.0 |
| 20260509145529 | 62 | 316 | 8.0 | 10.0 | 0.00 | 0.00 | 0.00 | 28 | 1018.0 |
| 20260509145029 | 62 | 278 | 9.0 | 16.0 | 0.00 | 0.00 | 0.00 | 29 | 1018.0 |
| 20260509144531 | 62 | 289 | 9.0 | 15.0 | 0.00 | 0.00 | 0.00 | 28 | 1018.0 |
| 20260509144029 | 62 | 294 | 8.0 | 14.0 | 0.00 | 0.00 | 0.00 | 29 | 1018.0 |
| 20260509143530 | 62 | 306 | 6.0 | 10.0 | 0.00 | 0.00 | 0.00 | 29 | 1018.0 |
| 20260509143032 | 62 | 297 | 9.0 | 12.0 | 0.00 | 0.00 | 0.00 | 28 | 1018.0 |
| 20260509142531 | 61 | 289 | 7.0 | 12.0 | 0.00 | 0.00 | 0.00 | 28 | 1018.0 |
| 20260509142030 | 61 | 310 | 4.0 | 9.0 | 0.00 | 0.00 | 0.00 | 28 | 1018.0 |
| 20260509141530 | 61 | 322 | 12.0 | 17.0 | 0.00 | 0.00 | 0.00 | 27 | 1018.0 |
| 20260509140600 | 61 | 307 | 11.0 | 21.0 | 0.00 | 0.00 | 0.00 | 28 | 1018.0 |
| 20260509140031 | 60 | 305 | 9.0 | 13.0 | 0.00 | 0.00 | 0.00 | 28 | 1018.0 |
| 20260509135537 | 60 | 298 | 5.0 | 9.0 | 0.00 | 0.00 | 0.00 | 29 | 1018.0 |
| 20260509135029 | 60 | 309 | 6.0 | 11.0 | 0.00 | 0.00 | 0.00 | 29 | 1018.0 |
| 20260509134529 | 60 | 302 | 9.0 | 17.0 | 0.00 | 0.00 | 0.00 | 29 | 1018.0 |
| 20260509134030 | 60 | 345 | 7.0 | 16.0 | 0.00 | 0.00 | 0.00 | 30 | 1018.0 |
| 20260509133529 | 59 | 329 | 9.0 | 13.0 | 0.00 | 0.00 | 0.00 | 30 | 1018.0 |
| 20260509133029 | 59 | 337 | 5.0 | 9.0 | 0.00 | 0.00 | 0.00 | 30 | 1018.0 |
| 20260509132530 | 59 | 309 | 9.0 | 15.0 | 0.00 | 0.00 | 0.00 | 31 | 1018.0 |
| 20260509132029 | 59 | 313 | 8.0 | 15.0 | 0.00 | 0.00 | 0.00 | 31 | 1017.0 |
| 20260509131530 | 58 | 307 | 9.0 | 15.0 | 0.00 | 0.00 | 0.00 | 31 | 1017.0 |
| 20260509131030 | 58 | 316 | 10.0 | 16.0 | 0.00 | 0.00 | 0.00 | 31 | 1017.0 |
| 20260509130532 | 58 | 306 | 9.0 | 13.0 | 0.00 | 0.00 | 0.00 | 32 | 1017.0 |
| 20260509130031 | 58 | 311 | 12.0 | 19.0 | 0.00 | 0.00 | 0.00 | 32 | 1017.0 |
| 20260509125529 | 58 | 304 | 11.0 | 16.0 | 0.00 | 0.00 | 0.00 | 31 | 1017.0 |
| 20260509125029 | 58 | 314 | 7.0 | 9.0 | 0.00 | 0.00 | 0.00 | 32 | 1017.0 |
| 20260509124529 | 58 | 308 | 9.0 | 14.0 | 0.00 | 0.00 | 0.00 | 32 | 1017.0 |
| 20260509124029 | 58 | 314 | 10.0 | 20.0 | 0.00 | 0.00 | 0.00 | 31 | 1017.0 |
| 20260509123529 | 58 | 316 | 9.0 | 16.0 | 0.00 | 0.00 | 0.00 | 32 | 1017.0 |
| 20260509123030 | 58 | 312 | 9.0 | 13.0 | 0.00 | 0.00 | 0.00 | 33 | 1017.0 |
| 20260509122530 | 58 | 308 | 9.0 | 14.0 | 0.00 | 0.00 | 0.00 | 32 | 1017.0 |
| 20260509122030 | 58 | 317 | 9.0 | 13.0 | 0.00 | 0.00 | 0.00 | 32 | 1017.0 |
| 20260509121530 | 58 | 330 | 9.0 | 13.0 | 0.00 | 0.00 | 0.00 | 32 | 1017.0 |
| 20260509121031 | 58 | 312 | 11.0 | 18.0 | 0.00 | 0.00 | 0.00 | 31 | 1017.0 |
| 20260509120530 | 58 | 311 | 8.0 | 16.0 | 0.00 | 0.00 | 0.00 | 31 | 1017.0 |
| 20260509120031 | 58 | 319 | 5.0 | 13.0 | 0.00 | 0.00 | 0.00 | 31 | 1016.0 |
| 20260509115530 | 58 | 320 | 5.0 | 8.0 | 0.00 | 0.00 | 0.00 | 32 | 1016.0 |
| 20260509115030 | 58 | 329 | 8.0 | 14.0 | 0.00 | 0.00 | 0.00 | 31 | 1016.0 |
| 20260509114530 | 58 | 329 | 11.0 | 17.0 | 0.00 | 0.00 | 0.00 | 32 | 1016.0 |
| 20260509114032 | 58 | 355 | 6.0 | 14.0 | 0.00 | 0.00 | 0.00 | 32 | 1016.0 |
| 20260509113529 | 58 | 337 | 9.0 | 17.0 | 0.00 | 0.00 | 0.00 | 34 | 1016.0 |
| 20260509113030 | 58 | 323 | 9.0 | 14.0 | 0.00 | 0.00 | 0.00 | 34 | 1016.0 |
| 20260509112529 | 58 | 341 | 9.0 | 19.0 | 0.00 | 0.00 | 0.00 | 33 | 1016.0 |
| 20260509112031 | 58 | 341 | 10.0 | 19.0 | 0.00 | 0.00 | 0.00 | 34 | 1016.0 |
| 20260509111529 | 59 | 336 | 9.0 | 17.0 | 0.00 | 0.00 | 0.00 | 34 | 1016.0 |
| 20260509111029 | 59 | 347 | 10.0 | 26.0 | 0.00 | 0.00 | 0.00 | 34 | 1016.0 |
| 20260509110531 | 59 | 344 | 8.0 | 13.0 | 0.00 | 0.00 | 0.00 | 35 | 1016.0 |
| 20260509110029 | 59 | 348 | 11.0 | 17.0 | 0.00 | 0.00 | 0.00 | 35 | 1016.0 |
| 20260509105529 | 59 | 347 | 10.0 | 17.0 | 0.00 | 0.00 | 0.00 | 35 | 1016.0 |
| 20260509105029 | 59 | 348 | 11.0 | 24.0 | 0.00 | 0.00 | 0.00 | 35 | 1016.0 |
| 20260509104531 | 59 | 347 | 11.0 | 19.0 | 0.00 | 0.00 | 0.00 | 35 | 1016.0 |
| 20260509104031 | 59 | 344 | 12.0 | 17.0 | 0.00 | 0.00 | 0.00 | 34 | 1016.0 |
| 20260509103531 | 60 | 339 | 5.0 | 12.0 | 0.00 | 0.00 | 0.00 | 35 | 1016.0 |
| 20260509103031 | 60 | 342 | 7.0 | 16.0 | 0.00 | 0.00 | 0.00 | 35 | 1016.0 |
| 20260509102529 | 60 | 344 | 14.0 | 30.0 | 0.00 | 0.00 | 0.00 | 35 | 1016.0 |
| 20260509102030 | 60 | 345 | 10.0 | 23.0 | 0.00 | 0.00 | 0.00 | 37 | 1015.0 |
| 20260509101529 | 60 | 347 | 11.0 | 21.0 | 0.00 | 0.00 | 0.00 | 37 | 1015.0 |
| 20260509101031 | 60 | 349 | 10.0 | 21.0 | 0.00 | 0.00 | 0.00 | 38 | 1015.0 |
| 20260509100529 | 60 | 349 | 13.0 | 22.0 | 0.00 | 0.00 | 0.00 | 37 | 1015.0 |
| 20260509100031 | 60 | 323 | 9.0 | 16.0 | 0.00 | 0.00 | 0.00 | 36 | 1015.0 |
| 20260509095529 | 60 | 331 | 8.0 | 20.0 | 0.00 | 0.00 | 0.00 | 36 | 1015.0 |
| 20260509095030 | 60 | 359 | 14.0 | 29.0 | 0.00 | 0.00 | 0.00 | 37 | 1015.0 |
| 20260509094529 | 60 | 333 | 13.0 | 22.0 | 0.00 | 0.00 | 0.00 | 37 | 1015.0 |
| 20260509094031 | 60 | 328 | 13.0 | 19.0 | 0.00 | 0.00 | 0.00 | 38 | 1015.0 |
| 20260509093529 | 60 | 341 | 9.0 | 17.0 | 0.00 | 0.00 | 0.00 | 40 | 1015.0 |
| 20260509093030 | 60 | 312 | 10.0 | 13.0 | 0.00 | 0.00 | 0.00 | 40 | 1015.0 |
| 20260509092534 | 61 | 313 | 10.0 | 18.0 | 0.00 | 0.00 | 0.00 | 40 | 1015.0 |
| 20260509092031 | 61 | 340 | 10.0 | 26.0 | 0.00 | 0.00 | 0.00 | 38 | 1015.0 |
| 20260509091530 | 61 | 329 | 10.0 | 17.0 | 0.00 | 0.00 | 0.00 | 38 | 1015.0 |
| 20260509091029 | 62 | 334 | 11.0 | 20.0 | 0.00 | 0.00 | 0.00 | 37 | 1015.0 |
| 20260509090529 | 62 | 296 | 10.0 | 22.0 | 0.00 | 0.00 | 0.00 | 36 | 1015.0 |
| 20260509090030 | 62 | 311 | 13.0 | 19.0 | 0.00 | 0.00 | 0.00 | 35 | 1015.0 |
| 20260509085529 | 62 | 291 | 10.0 | 16.0 | 0.00 | 0.00 | 0.00 | 36 | 1015.0 |
| 20260509085030 | 62 | 305 | 10.0 | 18.0 | 0.00 | 0.00 | 0.00 | 35 | 1015.0 |
| 20260509084530 | 63 | 302 | 8.0 | 16.0 | 0.00 | 0.00 | 0.00 | 35 | 1015.0 |
| 20260509084029 | 63 | 319 | 10.0 | 15.0 | 0.00 | 0.00 | 0.00 | 36 | 1015.0 |
| 20260509083529 | 63 | 297 | 9.0 | 16.0 | 0.00 | 0.00 | 0.00 | 37 | 1015.0 |
| 20260509082554 | 63 | 303 | 9.0 | 12.0 | 0.00 | 0.00 | 0.00 | 39 | 1015.0 |
| 20260509082031 | 63 | 306 | 9.0 | 13.0 | 0.00 | 0.00 | 0.00 | 38 | 1015.0 |
| 20260509081531 | 63 | 323 | 9.0 | 16.0 | 0.00 | 0.00 | 0.00 | 39 | 1015.0 |
| 20260509081031 | 63 | 323 | 13.0 | 21.0 | 0.00 | 0.00 | 0.00 | 39 | 1015.0 |
| 20260509080529 | 63 | 307 | 8.0 | 16.0 | 0.00 | 0.00 | 0.00 | 40 | 1015.0 |
| 20260509080031 | 63 | 319 | 9.0 | 16.0 | 0.00 | 0.00 | 0.00 | 41 | 1015.0 |
| 20260509075529 | 63 | 303 | 8.0 | 13.0 | 0.00 | 0.00 | 0.00 | 39 | 1015.0 |
| 20260509075031 | 64 | 292 | 9.0 | 14.0 | 0.00 | 0.00 | 0.00 | 38 | 1015.0 |
| 20260509074530 | 64 | 312 | 10.0 | 14.0 | 0.00 | 0.00 | 0.00 | 38 | 1015.0 |
| 20260509074031 | 64 | 293 | 12.0 | 16.0 | 0.00 | 0.00 | 0.00 | 37 | 1015.0 |
| 20260509073529 | 63 | 304 | 11.0 | 16.0 | 0.00 | 0.00 | 0.00 | 37 | 1015.0 |
| 20260509073031 | 61 | 315 | 9.0 | 13.0 | 0.00 | 0.00 | 0.00 | 36 | 1015.0 |
| 20260509072530 | 58 | 307 | 6.0 | 12.0 | 0.00 | 0.00 | 0.00 | 39 | 1015.0 |
| 20260509072029 | 57 | 28 | 3.0 | 4.0 | 0.00 | 0.00 | 0.00 | 43 | 1015.0 |
| 20260509071529 | 58 | 0 | 0.0 | 0.0 | 0.00 | 0.00 | 0.00 | 41 | 1015.0 |
| 20260509071029 | 58 | 0 | 0.0 | 0.0 | 0.00 | 0.00 | 0.00 | 43 | 1015.0 |
| 20260509070529 | 58 | 0 | 0.0 | 0.0 | 0.00 | 0.00 | 0.00 | 39 | 1015.0 |
| 20260509070029 | 58 | 334 | 0.0 | 0.0 | 0.00 | 0.00 | 0.00 | 41 | 1015.0 |
| 20260509065529 | 59 | 0 | 0.0 | 0.0 | 0.00 | 0.00 | 0.00 | 40 | 1015.0 |
| 20260509065030 | 59 | 87 | 3.0 | 4.0 | 0.00 | 0.00 | 0.00 | 36 | 1014.0 |
| 20260509064529 | 59 | 92 | 2.0 | 4.0 | 0.00 | 0.00 | 0.00 | 37 | 1014.0 |
| 20260509064029 | 60 | 98 | 2.0 | 5.0 | 0.00 | 0.00 | 0.00 | 37 | 1014.0 |
| 20260509063530 | 60 | 36 | 4.0 | 4.0 | 0.00 | 0.00 | 0.00 | 36 | 1014.0 |
| 20260509063030 | 61 | 30 | 4.0 | 4.0 | 0.00 | 0.00 | 0.00 | 36 | 1015.0 |
| 20260509062530 | 61 | 54 | 4.0 | 4.0 | 0.00 | 0.00 | 0.00 | 34 | 1015.0 |
| 20260509062030 | 61 | 38 | 3.0 | 4.0 | 0.00 | 0.00 | 0.00 | 33 | 1015.0 |
| 20260509061529 | 62 | 30 | 3.0 | 3.0 | 0.00 | 0.00 | 0.00 | 32 | 1015.0 |
| 20260509061031 | 61 | 16 | 4.0 | 6.0 | 0.00 | 0.00 | 0.00 | 32 | 1015.0 |
| 20260509060530 | 61 | 18 | 3.0 | 4.0 | 0.00 | 0.00 | 0.00 | 33 | 1015.0 |
| 20260509060031 | 61 | 48 | 5.0 | 5.0 | 0.00 | 0.00 | 0.00 | 33 | 1015.0 |
| 20260509055530 | 61 | 32 | 4.0 | 6.0 | 0.00 | 0.00 | 0.00 | 33 | 1015.0 |
| 20260509055030 | 61 | 49 | 6.0 | 6.0 | 0.00 | 0.00 | 0.00 | 34 | 1015.0 |
| 20260509054529 | 60 | 92 | 3.0 | 5.0 | 0.00 | 0.00 | 0.00 | 34 | 1015.0 |
| 20260509054030 | 60 | 34 | 5.0 | 9.0 | 0.00 | 0.00 | 0.00 | 34 | 1014.0 |
| 20260509053530 | 60 | 42 | 7.0 | 9.0 | 0.00 | 0.00 | 0.00 | 37 | 1014.0 |
| 20260509053029 | 60 | 48 | 4.0 | 4.0 | 0.00 | 0.00 | 0.00 | 38 | 1014.0 |
| 20260509052529 | 60 | 60 | 4.0 | 4.0 | 0.00 | 0.00 | 0.00 | 37 | 1014.0 |
| 20260509052030 | 60 | 54 | 4.0 | 4.0 | 0.00 | 0.00 | 0.00 | 37 | 1014.0 |
| 20260509051529 | 60 | 43 | 5.0 | 5.0 | 0.00 | 0.00 | 0.00 | 38 | 1014.0 |
| 20260509051030 | 60 | 29 | 4.0 | 4.0 | 0.00 | 0.00 | 0.00 | 39 | 1014.0 |
| 20260509050530 | 60 | 43 | 4.0 | 5.0 | 0.00 | 0.00 | 0.00 | 38 | 1014.0 |
| 20260509050031 | 61 | 44 | 4.0 | 5.0 | 0.00 | 0.00 | 0.00 | 39 | 1014.0 |
| 20260509045530 | 61 | 59 | 0.0 | 0.0 | 0.00 | 0.00 | 0.00 | 35 | 1014.0 |
| 20260509045030 | 62 | 22 | 4.0 | 4.0 | 0.00 | 0.00 | 0.00 | 35 | 1014.0 |
| 20260509044529 | 62 | 41 | 0.0 | 1.0 | 0.00 | 0.00 | 0.00 | 34 | 1014.0 |
| 20260509044031 | 62 | 43 | 3.0 | 3.0 | 0.00 | 0.00 | 0.00 | 35 | 1014.0 |
| 20260509043531 | 62 | 49 | 4.0 | 4.0 | 0.00 | 0.00 | 0.00 | 36 | 1014.0 |
| 20260509043031 | 62 | 56 | 1.0 | 3.0 | 0.00 | 0.00 | 0.00 | 36 | 1014.0 |
| 20260509042530 | 62 | 0 | 0.0 | 0.0 | 0.00 | 0.00 | 0.00 | 34 | 1014.0 |
| 20260509042031 | 63 | 0 | 0.0 | 0.0 | 0.00 | 0.00 | 0.00 | 34 | 1014.0 |
| 20260509041530 | 63 | 0 | 0.0 | 0.0 | 0.00 | 0.00 | 0.00 | 34 | 1014.0 |
| 20260509041030 | 63 | 131 | 2.0 | 4.0 | 0.00 | 0.00 | 0.00 | 34 | 1014.0 |
| 20260509040529 | 63 | 0 | 0.0 | 0.0 | 0.00 | 0.00 | 0.00 | 34 | 1014.0 |
| 20260509035543 | 63 | 17 | 1.0 | 3.0 | 0.00 | 0.00 | 0.00 | 33 | 1014.0 |
| 20260509035029 | 63 | 0 | 0.0 | 0.0 | 0.00 | 0.00 | 0.00 | 34 | 1014.0 |
| 20260509034529 | 63 | 38 | 1.0 | 2.0 | 0.00 | 0.00 | 0.00 | 36 | 1014.0 |
| 20260509034029 | 64 | 0 | 0.0 | 0.0 | 0.00 | 0.00 | 0.00 | 32 | 1014.0 |
| 20260509033529 | 65 | 0 | 0.0 | 0.0 | 0.00 | 0.00 | 0.00 | 34 | 1014.0 |
| 20260509033029 | 65 | 0 | 0.0 | 0.0 | 0.00 | 0.00 | 0.00 | 28 | 1014.0 |
| 20260509032531 | 65 | 285 | 0.0 | 0.0 | 0.00 | 0.00 | 0.00 | 27 | 1014.0 |
| 20260509032030 | 66 | 0 | 0.0 | 0.0 | 0.00 | 0.00 | 0.00 | 27 | 1014.0 |
| 20260509031529 | 66 | 358 | 7.0 | 9.0 | 0.00 | 0.00 | 0.00 | 26 | 1014.0 |
| 20260509031029 | 66 | 10 | 8.0 | 11.0 | 0.00 | 0.00 | 0.00 | 25 | 1014.0 |
| 20260509030530 | 66 | 9 | 9.0 | 12.0 | 0.00 | 0.00 | 0.00 | 25 | 1014.0 |
| 20260509030030 | 66 | 4 | 6.0 | 9.0 | 0.00 | 0.00 | 0.00 | 26 | 1014.0 |
| 20260509025529 | 66 | 343 | 2.0 | 5.0 | 0.00 | 0.00 | 0.00 | 27 | 1014.0 |
| 20260509025031 | 66 | 3 | 8.0 | 12.0 | 0.00 | 0.00 | 0.00 | 26 | 1014.0 |
| 20260509024530 | 66 | 357 | 4.0 | 9.0 | 0.00 | 0.00 | 0.00 | 28 | 1014.0 |
| 20260509024029 | 66 | 355 | 6.0 | 8.0 | 0.00 | 0.00 | 0.00 | 28 | 1014.0 |
| 20260509023529 | 67 | 345 | 1.0 | 5.0 | 0.00 | 0.00 | 0.00 | 28 | 1014.0 |
| 20260509023030 | 68 | 0 | 8.0 | 10.0 | 0.00 | 0.00 | 0.00 | 27 | 1014.0 |
| 20260509022529 | 68 | 4 | 6.0 | 7.0 | 0.00 | 0.00 | 0.00 | 25 | 1014.0 |
| 20260509022030 | 69 | 250 | 4.0 | 7.0 | 0.00 | 0.00 | 0.00 | 26 | 1013.0 |
| 20260509021530 | 70 | 0 | 5.0 | 6.0 | 0.00 | 0.00 | 0.00 | 25 | 1013.0 |
| 20260509021031 | 70 | 18 | 5.0 | 6.0 | 0.00 | 0.00 | 0.00 | 24 | 1013.0 |
| 20260509020531 | 71 | 353 | 2.0 | 4.0 | 0.00 | 0.00 | 0.00 | 24 | 1014.0 |
| 20260509020031 | 72 | 15 | 5.0 | 7.0 | 0.00 | 0.00 | 0.00 | 23 | 1014.0 |
| 20260509015531 | 74 | 17 | 0.0 | 3.0 | 0.00 | 0.00 | 0.00 | 22 | 1013.0 |
| 20260509015030 | 74 | 349 | 4.0 | 5.0 | 0.00 | 0.00 | 0.00 | 21 | 1013.0 |
| 20260509014530 | 75 | 343 | 9.0 | 11.0 | 0.00 | 0.00 | 0.00 | 19 | 1013.0 |
| 20260509014030 | 76 | 14 | 5.0 | 9.0 | 0.00 | 0.00 | 0.00 | 19 | 1013.0 |
| 20260509013530 | 76 | 9 | 5.0 | 8.0 | 0.00 | 0.00 | 0.00 | 19 | 1013.0 |
| 20260509013030 | 76 | 0 | 6.0 | 13.0 | 0.00 | 0.00 | 0.00 | 18 | 1014.0 |
| 20260509012528 | 76 | 352 | 7.0 | 13.0 | 0.00 | 0.00 | 0.00 | 17 | 1014.0 |
| 20260509012029 | 76 | 353 | 6.0 | 9.0 | 0.00 | 0.00 | 0.00 | 17 | 1014.0 |
| 20260509011531 | 76 | 310 | 4.0 | 10.0 | 0.00 | 0.00 | 0.00 | 16 | 1014.0 |
| 20260509011031 | 76 | 350 | 6.0 | 10.0 | 0.00 | 0.00 | 0.00 | 16 | 1014.0 |
| 20260509010531 | 76 | 2 | 4.0 | 9.0 | 0.00 | 0.00 | 0.00 | 18 | 1014.0 |
| 20260509010031 | 76 | 20 | 9.0 | 16.0 | 0.00 | 0.00 | 0.00 | 17 | 1014.0 |
| 20260509005530 | 76 | 335 | 4.0 | 9.0 | 0.00 | 0.00 | 0.00 | 18 | 1014.0 |
| 20260509005030 | 75 | 356 | 7.0 | 14.0 | 0.00 | 0.00 | 0.00 | 18 | 1014.0 |
| 20260509004530 | 76 | 15 | 7.0 | 14.0 | 0.00 | 0.00 | 0.00 | 17 | 1014.0 |
| 20260509004032 | 76 | 32 | 8.0 | 13.0 | 0.00 | 0.00 | 0.00 | 17 | 1014.0 |
| 20260509003530 | 75 | 343 | 11.0 | 17.0 | 0.00 | 0.00 | 0.00 | 18 | 1014.0 |
| 20260509003030 | 75 | 349 | 10.0 | 16.0 | 0.00 | 0.00 | 0.00 | 18 | 1014.0 |
| 20260509002530 | 75 | 339 | 10.0 | 15.0 | 0.00 | 0.00 | 0.00 | 18 | 1014.0 |
| 20260509002030 | 76 | 340 | 11.0 | 21.0 | 0.00 | 0.00 | 0.00 | 18 | 1014.0 |
| 20260509001532 | 76 | 305 | 8.0 | 14.0 | 0.00 | 0.00 | 0.00 | 18 | 1014.0 |
| 20260509001030 | 76 | 336 | 11.0 | 17.0 | 0.00 | 0.00 | 0.00 | 17 | 1014.0 |
| 20260509000530 | 76 | 343 | 16.0 | 21.0 | 0.00 | 0.00 | 0.00 | 17 | 1014.0 |
| 20260509000031 | 76 | 316 | 9.0 | 13.0 | 0.00 | 0.00 | 0.00 | 18 | 1014.0 |
| 20260508235529 | 76 | 331 | 11.0 | 19.0 | 0.00 | 0.00 | 0.00 | 18 | 1014.0 |
| 20260508235031 | 76 | 328 | 10.0 | 18.0 | 0.00 | 0.00 | 0.00 | 17 | 1014.0 |
| 20260508234530 | 75 | 339 | 8.0 | 13.0 | 0.00 | 0.00 | 0.00 | 18 | 1013.0 |
| 20260508234033 | 75 | 330 | 10.0 | 17.0 | 0.00 | 0.00 | 0.00 | 18 | 1014.0 |
| 20260508233531 | 75 | 55 | 6.0 | 15.0 | 0.00 | 0.00 | 0.00 | 18 | 1014.0 |
| 20260508233031 | 75 | 301 | 9.0 | 17.0 | 0.00 | 0.00 | 0.00 | 19 | 1014.0 |
| 20260508232529 | 75 | 323 | 9.0 | 19.0 | 0.00 | 0.00 | 0.00 | 19 | 1014.0 |
| 20260508232030 | 75 | 357 | 9.0 | 17.0 | 0.00 | 0.00 | 0.00 | 18 | 1014.0 |
| 20260508231531 | 75 | 319 | 8.0 | 16.0 | 0.00 | 0.00 | 0.00 | 18 | 1014.0 |
| 20260508231029 | 75 | 348 | 7.0 | 14.0 | 0.00 | 0.00 | 0.00 | 19 | 1014.0 |
| 20260508230529 | 75 | 4 | 13.0 | 39.0 | 0.00 | 0.00 | 0.00 | 19 | 1014.0 |
| 20260508230030 | 75 | 328 | 12.0 | 22.0 | 0.00 | 0.00 | 0.00 | 19 | 1014.0 |
| 20260508225531 | 75 | 329 | 11.0 | 20.0 | 0.00 | 0.00 | 0.00 | 19 | 1014.0 |
| 20260508225029 | 75 | 331 | 13.0 | 19.0 | 0.00 | 0.00 | 0.00 | 19 | 1014.0 |
| 20260508224532 | 75 | 311 | 10.0 | 16.0 | 0.00 | 0.00 | 0.00 | 20 | 1014.0 |
| 20260508224032 | 75 | 6 | 8.0 | 14.0 | 0.00 | 0.00 | 0.00 | 20 | 1014.0 |
| 20260508223531 | 74 | 322 | 15.0 | 22.0 | 0.00 | 0.00 | 0.00 | 20 | 1014.0 |
| 20260508223029 | 74 | 334 | 12.0 | 17.0 | 0.00 | 0.00 | 0.00 | 20 | 1014.0 |
| 20260508222531 | 75 | 354 | 9.0 | 13.0 | 0.00 | 0.00 | 0.00 | 20 | 1014.0 |
| 20260508222030 | 75 | 323 | 11.0 | 23.0 | 0.00 | 0.00 | 0.00 | 20 | 1014.0 |
| 20260508221530 | 75 | 324 | 10.0 | 18.0 | 0.00 | 0.00 | 0.00 | 20 | 1014.0 |
| 20260508221032 | 75 | 340 | 10.0 | 23.0 | 0.00 | 0.00 | 0.00 | 20 | 1014.0 |
| 20260508220530 | 75 | 326 | 12.0 | 18.0 | 0.00 | 0.00 | 0.00 | 20 | 1014.0 |
| 20260508220030 | 74 | 21 | 12.0 | 16.0 | 0.00 | 0.00 | 0.00 | 20 | 1014.0 |
| 20260508215533 | 74 | 337 | 11.0 | 20.0 | 0.00 | 0.00 | 0.00 | 20 | 1014.0 |